OBJECT H, 43669 (Decayed)
Orbit data source: Space-Track
Recently launched and/or uncataloged satellites may have evolving metadata. Metadata may include but not limited to: Owner, Maufacturer, Bus, Motor, and Mission.
OBJECT H, 43669 was a satellite owned by Changsha Tianyi (CN) in LEO that was launched on Mon, 29 Oct 2018 UTC via a CHANG ZHENG 2C launch vehicle from the Jiuquan Satellite Launch Center, China (JSC). Unknown objects in Earth's orbit typically refer to objects detected orbiting the Earth but have not yet been identified or cataloged. These objects could be anything from previously untracked satellites, spent rocket stages, debris from satellite collisions, or even natural meteoroids temporarily captured by Earth's gravity. This object's orbit decayed before it could be identified.
43669 intel report (Beta)
OBJECT H radio frequencies
OBJECT H details
Identifier | |
Orbit | Decayed |
Last TLE update | 8 months ago |
Origin | |
Manufacturer | Changsha Tianyi |
Mission | Decayed Commercial Communications |
Bus & Motor | CUBESAT 6U, Unknown motor |
Mass | 8 kg wet, 8 kg dry |
Launch date (UTC) | |
Launch vehicle | |
Launch site | |
Object type | Unknown |
Shape & HBR | Box, 0.3 m |
Radar Cross Section | 0.080 m², Medium (>0.1 m² and < 1m²) |
Expand to show TLE details & history
TLE from 8 months ago
0 OBJECT H
1 43669U 18083H 24130.99921043 .13914420 25146-5 50688-3 0 9992
2 43669 97.2952 170.3552 0012886 250.8284 109.1623 16.43032312307806
Definitive object data (Epoch: 2024-05-09T23:58:51.781Z)
Latitude | 0.00001° |
Longitude | -57.64657° |
Altitude | 163.782 km |
Speed | 7.806 km/s |
True Right ascension | 11h 21m 25s |
True Declination | 0° 00' 00" |
Sunlit | Object was in full shadow at TLE epoch |
Visualization observer readout
Observer readout values are unavailable because the object's trajectory could not be propagated. This is usually caused when the trajectory data is faulty or the object's orbit has decayed. |
Visualization observer readout
Observer readout values are unavailable because the object's trajectory could not be propagated. This is usually caused when the trajectory data is faulty or the object's orbit has decayed. |
Orbital elements
Apogee altitude | 162.966 km |
Perigee altitude | 146.129 km |
Semi-major axis | 6,532.684 km |
Eccentricity | 0.0012886 |
Inclination | 97.2952° |
RAAN | 170.3552° |
Arg. of periapsis | 250.8284° |
True anomaly | 109.30171° |
Mean anomaly | 109.1623° |
Eccentric anomaly | 109.23201° |
Mean motion | 4.1106 °/min |
BSTAR | 0.00050688 |
Orbital period | 87.58 mins |
Other satellites on launch #83 in the year 2018 (2018-10-29 UTC)
CFOSAT, 43662 |
OBJECT B, 43663 (Decayed) |
OBJECT C, 43664 |
OBJECT D, 43665 (Decayed) |
OBJECT E, 43666 (Decayed) |
CZ-2C R/B, 43667 (Decayed) |
OBJECT G, 43668 (Decayed) |
OBJECT H, 43669 (Decayed) |
OBJECT H Visibility forecast
Observer location: undefined°, undefined
Span | Click to sort rows by Start time (UTC) header in descending order | Start Az. | Max El. time (UTC) | Max El. Az. | Max El. | End time (UTC) | End Az. |
---|
Click to sort rows by NORAD ID header in ascending order | Click to sort rows by Common name header in ascending order | Click to sort rows by Country header in ascending order | Click to sort rows by Owner header in ascending order | Click to sort rows by Obj. Type header in ascending order | Click to sort rows by Miss dist. header in ascending order | Click to sort rows by Rel. speed header in ascending order | Click to sort rows by Apr. angle header in ascending order | Click to sort rows by TCA header in ascending order |
---|